Home   Weather   Shreveport   Past weeks

Flag for USA Past Weather in Shreveport, Louisiana, USA — Yesterday and Last 2 Weeks

Now
49 °F

Mostly cloudy.


Feels Like: 45 °F
Forecast: 46 / 50 °F
Wind: 8 mph from Northeast

Location: Shreveport Regional Airport

Current Time: Dec 5, 2016 at 2:46:46 am

Latest Report: Dec 5, 2016 at 1:56 am


Visibility: 10 mi

Pressure: 30.01 "Hg

Humidity: 84%

Dew Point: 44 °F

Location of ShreveportLocation

Past Weather in Shreveport — Graph

°F

Shreveport Temperature Yesterday

Maximum temperature yesterday: 51 °F (at 1:56 pm)
Minimum temperature yesterday: 49 °F (at 12:56 am)
Average temperature yesterday: 50 °F

High & Low Weather Summary for the Past Weeks

 TemperatureHumidityPressure
High75 °F (Nov 22, 2:56 pm)100% (Nov 23, 3:56 am)30.45 "Hg (Nov 23, 3:56 am)
Low32 °F (Dec 1, 6:56 am)21% (Dec 1, 2:56 pm)29.46 "Hg (Nov 28, 10:56 am)
Average54 °F77%30.06 "Hg
* Reported Nov 20 12:56 am — Dec 5 12:56 am, Shreveport, Weather by CustomWeather, © 2016

Note: Actual official high and low records may vary slightly from our data, if they occured in-between our weather recording intervals... More about our weather records

Advertising

Shreveport Weather History for the Previous 24 Hours

Scroll right to see more
 ConditionsComfort  
Time TempWeatherWind HumidityBarometerVisibility
12:56 am
Mon, Dec 5
49 °FMostly cloudy.9 mph86%30.00 "Hg10 mi
11:56 pm
Sun, Dec 4
49 °FOvercast.12 mph86%30.02 "Hg10 mi
10:56 pm50 °FOvercast.7 mph86%30.04 "Hg10 mi
9:56 pm50 °FOvercast.5 mph86%30.04 "Hg10 mi
8:56 pm50 °FOvercast.5 mph89%30.04 "Hg10 mi
7:56 pm50 °FOvercast.5 mph86%30.02 "Hg10 mi
6:56 pm49 °FOvercast.8 mph90%30.00 "Hg10 mi
5:56 pm50 °FOvercast.5 mph86%30.00 "Hg10 mi
4:56 pm51 °FMore clouds than sun.6 mph86%30.01 "Hg10 mi
3:56 pm51 °FOvercast.7 mph86%29.99 "Hg10 mi
2:56 pm51 °FOvercast.12 mph86%30.00 "Hg10 mi
1:56 pm51 °FLow clouds.6 mph89%29.99 "Hg10 mi
12:56 pm50 °FLow clouds.10 mph93%30.00 "Hg10 mi
11:56 am50 °FLow clouds.8 mph93%30.02 "Hg10 mi
10:56 am49 °FLow clouds.6 mph97%30.02 "Hg10 mi
9:56 am49 °FLow clouds.6 mph97%30.03 "Hg9 mi
8:56 am49 °FLow clouds.5 mph97%29.99 "Hg10 mi
7:56 am49 °FFog.7 mph97%29.97 "Hg6 mi
6:56 am49 °FLow clouds.5 mph93%29.96 "Hg10 mi
5:56 am49 °FLow clouds.6 mph93%29.93 "Hg10 mi
4:56 am49 °FLow clouds.3 mph93%29.92 "Hg10 mi
3:56 am49 °FLow clouds.8 mph93%29.93 "Hg10 mi
2:56 am49 °FLow clouds.5 mph97%29.94 "Hg10 mi
Weather by CustomWeather, © 2016

See weather overviewHow to use our weather pages